Weather History for MWCR - November, 2011

Change the Weather History Date:

Tuesday, November 15, 2011

  Actual Average Record
Temperature  
Mean Temperature 82 °F -  
Max Temperature 88 °F 82 °F - (-1)
Min Temperature 77 °F 74 °F - (-1)
Cooling Degree Days 18    
Growing Degree Days 32 (Base 50)    
Moisture  
Dew Point 79 °F    
Average Humidity 88    
Maximum Humidity 100    
Minimum Humidity 73    
Precipitation  
Precipitation 0.00 in - - ()
Sea Level Pressure  
Sea Level Pressure 29.93 in    
Wind  
Wind Speed 9 mph ()    
Max Wind Speed 15 mph    
Max Gust Speed -    
Visibility 6.2 miles    
Events Rain    
Averages and records for this station are not official NWS values.
T = Trace of Precipitation, MM = Missing Value Source: Averaged Metar Reports

Daily Weather History Graph

Daily Weather History Graph

Search for Another Location

Airport or City:

Trip Planner

Search our weather history database for the weather conditions in past years. The results will help you decide how hot, cold, wet, or windy it might be!

Date:

Astronomy

Nov. 15, 2011 Rise Set
Actual Time 6:33 AM EST 5:46 PM EST
Civil Twilight 6:09 AM EST 6:09 PM EST
Nautical Twilight 5:43 AM EST 6:36 PM EST
Astronomical Twilight 5:17 AM EST 7:02 PM EST
Moon 9:56 PM EST (11/15) 10:27 AM EST (11/15)
Length of Visible Light 11h 59m
Length of Day
11h 13m
Waning Gibbous, 79% of the Moon is Illuminated
Nov 15
Waning Gibbous
Nov 18
Last Quarter
Nov 25
New
Dec 2
First Quarter
Dec 10
Full

Hourly Weather History & Observations

Time (EST) Temp. Heat Index Dew Point Humidity Pressure Visibility Wind Dir Wind Speed Gust Speed Precip Events Conditions
6:00 AM 80.6 °F 88.1 °F 78.8 °F 94% 29.92 in 6.2 mi ESE 6.9 mph - N/A   Scattered Clouds
7:00 AM 78 °F - 78 °F 98% 29.95 in 6 mi ESE 10.4 mph - -   Partly Cloudy
7:00 AM 78.8 °F - 77.0 °F 94% 29.95 in 6.2 mi ESE 10.4 mph - N/A   Partly Cloudy
8:00 AM 80.6 °F 88.1 °F 78.8 °F 94% 29.95 in 6.2 mi East 9.2 mph - N/A   Partly Cloudy
9:00 AM 84.2 °F 98.3 °F 80.6 °F 89% 29.98 in 6.2 mi East 9.2 mph - N/A   Scattered Clouds
10:00 AM 86.0 °F 99.3 °F 78.8 °F 79% 29.98 in 6.2 mi ESE 12.7 mph - N/A   Mostly Cloudy
11:00 AM 84.2 °F 96.1 °F 78.8 °F 84% 29.98 in 6.2 mi ESE 11.5 mph - N/A   Mostly Cloudy
12:00 PM 86.0 °F 99.3 °F 78.8 °F 79% 29.95 in 6.2 mi ESE 11.5 mph - N/A   Mostly Cloudy
1:00 PM 86 °F - 79 °F 73% 29.93 in 6 mi ESE 15.0 mph - -   Partly Cloudy
1:00 PM 86.0 °F 99.3 °F 78.8 °F 79% 29.92 in 6.2 mi ESE 15.0 mph - N/A   Scattered Clouds
2:00 PM 87.8 °F 102.5 °F 78.8 °F 75% 29.89 in 6.2 mi ESE 11.5 mph - N/A   Scattered Clouds
3:00 PM 87.8 °F 102.5 °F 78.8 °F 75% 29.89 in 6.2 mi ESE 12.7 mph - N/A   Partly Cloudy
3:57 PM 86.0 °F 99.3 °F 78.8 °F 79% 29.86 in 6.2 mi ESE 12.7 mph - N/A   Partly Cloudy
5:00 PM 84.2 °F 98.3 °F 80.6 °F 89% 29.89 in 6.2 mi East 12.7 mph - N/A   Partly Cloudy
5:55 PM 80.6 °F 89.3 °F 80.6 °F 100% 29.89 in 6.2 mi ESE 12.7 mph - N/A Rain Light Rain Showers
7:00 PM 79 °F - 77 °F 92% 29.95 in 6 mi East 6.9 mph - -   Partly Cloudy
7:00 PM 80.6 °F 89.3 °F 80.6 °F 100% 29.92 in 6.2 mi ESE 9.2 mph - N/A   Partly Cloudy
7:54 PM 80.6 °F 89.3 °F 80.6 °F 100% 29.95 in 6.2 mi East 9.2 mph - N/A   Partly Cloudy
8:51 PM 80.6 °F 89.3 °F 80.6 °F 100% 29.95 in 6.2 mi East 9.2 mph - N/A   Partly Cloudy
9:51 PM 80.6 °F 88.1 °F 78.8 °F 94% 29.95 in - East 6.9 mph - N/A   Clear